Location: Gazon
(48.1318°N, 1.2708°W)
Time: 02:31:35
(UTC+00:00)

Meteor 2-13 Rocket - Pass Details

Date: 18 September 2020
Orbit: 936 x 958 km, 82.5° (Epoch: 29 October)

Event Time Altitude Azimuth Distance (km) Brightness Sun altitude
Rises 19:57:06 0° 352° (N) 3,652 8.0 -18.1°
Reaches altitude 10° 19:59:40 10° 356° (N) 2,701 7.2 -18.5°
Maximum altitude 20:05:48 64° 77° (ENE) 1,060 4.4 -19.4°
Enters shadow 20:09:03 29° 150° (SSE) 1,689 5.3 -19.9°
